Dewpoint
27 24 25 26 22 19 18 20 19 19 22 22 31 33 35 38 38 40 43 46 48 49 51 52 53 53 53 55 56 57 57 59 56 53 51 53 51 54 54 55 55 55 56 55
25 24 26 23 22 21 21 20 20 20 22 21 30 31 35 37 39 40 42 45 47 49 50 51 52 53 54 56 57 57 57 59 57 56 58 56 55 54 54 55 56 56 56 57
24 24 25 24 22 21 22 21 21 20 22 23 28 28 30 35 38 39 40 43 45 47 48 50 51 53 54 55 56 57 58 60 60 59 57 57 56 55 53 53 54 54 56 57
25 24 23 23 22 22 21 22 22 22 22 18 23 16 29 33 35 38 40 40 40 43 45 47 49 51 53 53 55 57 58 59 59 61 58 60 55 53 51 52 53 56 56 57
24 22 23 23 23 24 22 23 24 24 22 22 22 18 26 31 32 35 39 41 42 42 42 43 44 46 46 49 51 53 55 56 56 57 57 53 54 51 51 52 56 58 58 57
25 27 24 24 26 24 24 23 23 23 22 16 23 22 21 28 32 35 38 41 43 43 43 44 43 43 44 45 46 47 50 53 55 54 54 54 54 54 52 53 52 51 52 53
27 26 26 26 17 25 25 23 15 13 14 7 24 21 23 33 35 36 39 38 39 40 40 40 40 39 41 41 44 45 46 49 51 49 49 49 51 54 53 53 51 53 51 52
26 24 25 25 24 23 25 26 19 8 12 9 22 17 27 33 34 36 39 39 37 37 37 37 37 39 38 40 44 45 46 48 48 47 47 49 49 44 48 51 52 52 52 52
28 25 26 27 28 26 25 26 27 26 26 23 20 27 32 33 33 35 37 37 37 37 37 37 37 40 42 43 44 44 45 45 47 47 48 48 49 50 48 52 52 50 55 54
31 27 26 29 25 29 28 28 26 28 24 11 15 22 20 33 33 35 35 36 37 37 36 37 37 40 41 41 42 41 43 44 45 46 45 45 48 48 48 48 48 50 53 56
32 32 22 25 25 24 27 26 28 28 27 23 15 14 31 32 35 35 36 37 37 36 34 35 36 39 40 40 38 40 41 42 42 44 45 45 45 46 46 46 46 47 51 51
34 32 24 22 26 28 30 28 28 31 21 26 28 23 33 35 36 37 38 37 34 35 35 37 36 36 38 40 40 40 42 42 42 42 42 43 43 44 44 46 45 47 49 49
35 33 31 21 28 30 30 31 31 32 31 29 29 24 35 37 38 38 38 33 34 36 35 36 36 37 38 39 40 40 41 41 41 41 40 41 43 42 43 45 46 47 48 48
40 32 26 16 20 24 27 30 31 33 36 29 28 30 30 33 34 36 34 34 33 32 33 34 37 37 37 39 39 40 40 40 39 39 40 41 41 42 43 45 46 46 46 46
37 27 28 26 26 28 28 29 31 32 31 32 30 31 33 34 36 36 36 35 31 30 32 35 36 37 37 38 39 39 40 41 40 40 40 41 42 42 43 44 46 46 46 45
36 27 33 28 30 31 31 32 33 32 32 34 33 31 34 36 36 33 34 33 31 32 34 35 36 37 38 38 38 39 40 41 41 40 40 41 42 43 44 44 44 46 45 44
33 32 32 28 33 32 30 30 31 33 34 35 33 31 36 35 33 34 35 34 32 33 36 37 37 38 38 39 40 39 40 40 41 41 41 42 43 43 43 43 43 44 44 46
35 36 35 29 31 24 31 36 35 34 35 35 33 35 35 34 35 37 36 32 34 37 38 37 37 38 38 40 39 40 40 41 42 42 42 42 43 43 43 43 44 44 45 46
37 36 33 32 30 26 31 36 38 36 33 35 36 34 33 35 38 35 32 35 39 39 38 37 37 39 39 39 40 40 40 42 42 42 42 42 43 43 43 43 43 43 43 44
36 37 34 30 26 21 30 35 38 38 33 37 37 36 36 39 38 31 36 39 40 40 38 38 39 38 39 40 41 42 42 42 42 42 43 44 43 43 43 44 44 44 45 44
31 31 29 26 28 26 32 37 38 31 32 36 37 39 40 40 40 40 40 40 40 39 39 39 39 39 41 42 43 42 42 41 42 43 44 44 44 44 44 44 44 44 45 45
31 33 31 31 28 25 35 38 37 38 41 41 40 40 41 41 40 40 39 40 39 38 38 39 40 41 42 42 43 42 41 42 44 44 44 44 44 44 44 44 45 45 45 44
31 31 36 36 32 36 40 41 42 42 42 42 42 41 42 41 39 39 40 39 38 38 39 40 41 41 41 42 42 42 42 44 45 46 45 44 46 45 45 45 45 45 45 44
33 34 34 34 34 36 38 40 41 42 43 42 42 43 42 40 41 40 40 38 38 39 39 41 41 41 41 42 43 44 45 46 47 45 44 45 45 45 46 44 44 46 46 46
31 35 35 35 36 37 37 39 41 40 41 41 42 42 41 41 41 40 38 39 39 40 40 41 41 41 41 42 43 45 47 47 47 45 45 45 46 46 46 43 40 43 44 43
36 37 38 38 37 38 38 40 41 41 40 40 42 41 42 42 41 40 39 39 40 40 40 40 41 41 42 42 43 45 47 47 47 45 45 45 47 46 45 45 44 40 39 39
Lifted_Index
5 5 5 5 5 5 4 4 4 4 5 5 5 5 5 6 5 5 4 3 3 2 2 2 2 1 1 -0 -0 0 1 1 1 1 1 2 3 3 3 3 3 3 2 2
5 5 5 5 5 5 5 4 4 5 5 5 5 5 6 6 6 5 5 4 3 2 2 2 1 1 0 -0 -1 -0 -0 -0 0 0 0 1 2 2 3 3 3 3 2 2
5 5 5 5 5 5 5 5 5 5 5 5 5 5 6 6 6 5 5 4 4 3 2 2 1 1 0 -1 -1 -1 -1 -1 -1 -1 -1 -0 0 1 2 2 2 3 3 2
5 5 5 5 5 6 6 6 6 6 5 5 5 5 5 6 5 5 5 4 4 4 3 3 2 1 0 -0 -1 -1 -1 -1 -1 -1 -1 -0 0 1 1 2 2 2 2 2
5 5 5 5 6 6 7 7 7 6 5 5 4 4 5 5 5 4 4 4 4 4 4 3 3 2 2 1 0 -0 -0 -1 -1 -1 -0 0 1 1 2 2 1 1 2 2
5 5 5 5 6 7 7 7 6 5 4 4 4 5 5 5 4 4 4 4 4 4 4 4 4 3 3 2 2 1 1 0 0 0 1 2 2 2 2 2 2 1 1 1
4 4 5 6 7 7 7 6 4 3 2 3 4 5 4 4 4 4 4 4 4 4 4 4 4 4 3 3 3 3 2 2 2 2 2 3 3 3 3 2 2 1 1 1
4 4 5 6 7 8 7 6 4 2 2 3 4 4 4 4 4 4 4 4 4 4 4 4 4 4 4 4 3 3 3 3 3 3 3 3 4 4 4 3 2 2 1 1
4 5 6 7 8 8 7 6 5 4 3 2 3 4 4 4 4 4 4 4 4 4 4 3 3 3 3 3 3 3 3 3 3 3 3 4 4 4 4 4 3 2 1 1
5 5 7 8 8 7 7 6 6 5 3 2 3 4 4 4 3 3 3 3 3 3 3 3 3 3 3 3 3 3 3 3 3 3 4 4 5 5 5 5 4 3 2 1
6 6 6 7 7 6 6 6 6 5 3 2 3 3 4 3 3 3 3 3 3 3 3 3 2 3 3 3 3 3 3 3 4 4 5 6 6 6 6 6 6 5 4 3
6 6 5 6 6 6 6 6 5 5 4 3 3 3 4 4 4 4 3 3 3 3 2 2 2 3 3 3 3 3 4 4 5 6 7 7 8 8 8 7 7 7 6 5
6 5 4 4 5 5 5 5 5 4 4 4 3 3 4 4 4 3 3 3 2 2 2 2 2 3 3 3 4 4 5 6 7 8 8 9 9 9 9 9 9 9 9 8
6 5 4 4 4 5 5 4 4 4 4 4 4 4 3 3 3 3 2 2 2 3 3 3 3 3 4 4 5 6 7 8 9 9 9 9 9 9 10 10 10 10 10 10
5 5 5 4 5 5 4 4 4 4 4 4 4 4 3 3 3 2 2 2 3 4 4 4 4 5 5 6 7 8 9 9 9 9 9 9 9 10 10 11 11 11 11 10
5 5 4 4 4 4 4 4 4 4 4 4 4 4 4 3 3 2 2 3 4 4 5 5 5 6 7 8 8 8 9 9 9 9 9 9 9 10 10 11 11 11 11 11
5 5 4 3 3 3 3 4 4 4 5 5 4 4 4 3 3 2 3 3 4 5 5 6 7 8 8 8 8 8 8 8 8 8 8 9 9 9 10 10 11 12 11 11
5 5 4 3 3 3 4 5 5 5 5 5 5 5 4 4 3 3 3 4 5 5 6 7 8 8 8 8 8 8 8 8 8 8 8 9 9 9 9 10 11 12 12 11
4 4 4 3 2 3 4 5 6 6 6 5 5 5 4 4 4 4 4 4 5 6 7 8 8 8 8 8 8 8 8 8 8 8 8 9 9 9 10 10 11 12 12 12
4 4 4 3 2 3 4 5 6 6 6 6 5 5 4 4 4 4 4 5 6 7 8 8 8 7 7 8 8 8 8 8 8 8 8 9 9 10 10 10 11 12 12 12
4 4 3 3 2 3 5 6 5 5 5 6 6 5 4 4 4 4 5 5 7 8 8 8 7 7 7 8 8 8 7 7 7 7 8 8 9 9 10 10 11 11 11 11
4 4 3 3 3 4 5 5 5 5 5 5 5 5 4 4 4 4 5 6 7 8 7 7 6 6 7 8 7 7 6 6 6 7 7 8 9 9 9 9 9 9 9 8
4 5 4 4 4 5 5 5 5 5 5 5 5 5 4 4 4 5 6 7 8 7 6 6 6 6 7 7 7 7 6 6 6 6 7 7 8 8 8 8 7 7 6 5
6 6 5 5 5 5 5 5 5 5 5 5 5 5 5 5 5 6 7 8 8 7 6 6 6 6 6 6 6 6 6 5 5 5 6 7 7 7 7 7 6 6 5 4
6 6 5 5 5 5 5 5 5 5 6 6 5 5 5 6 6 7 7 8 7 6 6 6 6 6 6 6 6 6 5 5 5 5 6 6 6 6 6 6 5 5 4 4
6 6 5 5 5 5 5 5 5 5 6 6 6 5 6 6 6 7 8 8 7 6 6 5 5 6 6 6 6 6 5 5 5 5 6 5 5 5 6 5 5 4 4 4